{"data":{"norad_id":52602,"epoch":"2026-05-24T16:57:45.052416Z","epoch_age_seconds":96906,"freshness":"FRESH","line1":"1 52602U 22052E   26144.70677144  .00006182  00000+0  40654-3 0  9997","line2":"2 52602  53.2142 297.8637 0001914  99.3322 260.7887 15.08807651223139","mean_motion":15.08807651,"eccentricity":0.0001914,"inclination_deg":53.2142,"raan_deg":297.8637,"arg_perigee_deg":99.3322,"mean_anomaly_deg":260.7887,"bstar":0.00040654,"rev_number":22313,"period_min":95.439600869309,"perigee_km":538.51816745029,"apogee_km":541.16636991434,"semimajor_km":6917.9792686823,"source":"CELESTRAK","updated_at":"2026-05-25T13:38:17.197261Z"}}